User: anonymous   Login
Location: Peebles
(55.6412°N, 3.1714°W)
Time: 07:02:54
(UTC+00:00)
Language:

Cosmos 1295 Rocket - Orbit

View from above orbital plane
View from above orbital plane
View from above satellite
View from above satellite

Ground track
Ground track

The orbit data is extracted from the following two-line orbital elements,

1 12682U 81077B   21336.85599638  .00000046  00000-0  29496-4 0  9994
2 12682  82.9183 237.1437 0035362  92.5510 267.9697 13.78614538 27146
Epoch (UTC): 02 December 2021 20:32:38
Eccentricity: 0.0035362
inclination: 82.9183°
perigee height: 943 km
apogee height: 995 km
right ascension of ascending node: 237.1437°
argument of perigee: 92.5510°
revolutions per day: 13.78614538
mean anomaly at epoch: 267.9697°
orbit number at epoch: 2714

The dashed part of the orbit path shows where the satellite is in the earth's shadow,  

DLR